USA 113                 
1 23628U 95038A   19259.87310422 -.00000338  00000-0  00000+0 0  9993
2 23628  11.1810  32.0707 0001706 137.2734 244.3828  1.00273260  6890
ATLAS 2 CENTAUR R/B(2)  
1 23648U 95038C   19259.47986702  .00000058  00000-0  00000+0 0  9999
2 23648  14.7830   6.0271 0017564 242.3352 117.5192  1.01265129  1091